FW2486 Weather Reports


Display with metric or nautical units.
time (UTC)temp
F
wind
direction
speed
MPH
gust
MPH
rain 1hr
in
rain 24hr
in
rain mn
in
humidity
%
barometer
mb
20260902230110 58 326 3.0 6.0 0.03 0.11 0.10 93 1011.3
20260902224643 58 337 3.0 7.0 0.02 0.10 0.09 93 1011.2
20260902223035 57 341 3.0 5.0 0.02 0.09 0.09 93 1011.2
20260902221534 57 338 2.0 5.0 0.04 0.09 0.08 93 1011.2
20260902220034 57 320 2.0 5.0 0.04 0.08 0.08 92 1011.0
20260902214538 57 315 4.0 7.0 0.05 0.08 0.07 91 1010.9
20260902213037 58 309 4.0 7.0 0.05 0.07 0.05 90 1010.9
20260902210141 58 324 4.0 6.0 0.04 0.04 0.03 87 1010.9
20260902204529 59 342 3.0 5.0 0.03 0.03 0.02 86 1010.9
20260902203031 59 340 1.0 6.0 0.02 0.02 0.01 84 1010.9
20260902201606 59 349 0.0 4.0 0.01 0.01 0.00 83 1011.2
20260902200034 59 347 2.0 5.0 0.00 0.00 0.00 82 1011.1
20260902194535 60 341 2.0 4.0 0.00 0.00 0.00 80 1011.1
20260902193031 60 332 1.0 4.0 0.00 0.00 0.00 78 1011.1
20260902191642 61 288 1.0 5.0 0.00 0.00 0.00 74 1011.1
20260902190034 62 313 1.0 4.0 0.00 0.00 0.00 71 1011.0
20260902184530 62 353 3.0 5.0 0.00 0.00 0.00 70 1010.9
20260902180035 61 335 5.0 10.0 0.00 0.00 0.00 71 1010.9
20260902174533 61 337 4.0 9.0 0.00 0.00 0.00 71 1010.9
20260902173031 62 348 4.0 8.0 0.00 0.00 0.00 70 1011.0
20260902171534 62 341 5.0 9.0 0.00 0.00 0.00 72 1011.1
20260902170035 60 337 1.0 9.0 0.00 0.00 0.00 76 1011.5
20260902164609 59 284 0.0 3.0 0.00 0.00 0.00 77 1011.6
20260902163106 59 247 0.0 1.0 0.00 0.00 0.00 78 1011.8
20260902154650 56 73 1.0 3.0 0.00 0.00 0.00 84 1012.3
20260902153034 55 289 1.0 3.0 0.00 0.00 0.00 86 1012.3
20260902151532 54 112 1.0 2.0 0.00 0.00 0.00 87 1012.5
20260902144536 53 210 0.0 2.0 0.00 0.00 0.00 89 1012.7
20260902143034 52 247 0.0 2.0 0.00 0.00 0.00 89 1012.8
20260902141536 51 113 0.0 2.0 0.00 0.00 0.00 90 1012.8
20260902134534 50 105 0.0 3.0 0.00 0.00 0.00 88 1012.8
20260902133107 50 145 1.0 5.0 0.00 0.00 0.00 88 1012.9
20260902130108 48 259 2.0 5.0 0.00 0.00 0.00 87 1012.9
20260902124538 49 211 0.0 1.0 0.00 0.00 0.00 85 1013.0
20260902120029 51 230 1.0 5.0 0.00 0.00 0.00 81 1013.1
20260902114532 53 256 1.0 4.0 0.00 0.00 0.00 77 1013.4
20260902113034 54 174 2.0 5.0 0.00 0.00 0.00 75 1013.3
20260902111536 56 132 2.0 5.0 0.00 0.00 0.00 72 1013.3
20260902104536 57 123 4.0 6.0 0.00 0.00 0.00 73 1013.4
20260902101536 58 128 3.0 6.0 0.00 0.00 0.00 72 1013.6
20260902100037 58 156 2.0 7.0 0.00 0.00 0.00 72 1013.7
20260902094535 58 162 3.0 9.0 0.00 0.00 0.00 73 1013.9
20260902093034 57 210 2.0 8.0 0.00 0.00 0.00 75 1014.0
20260902091537 56 154 1.0 4.0 0.00 0.00 0.00 75 1014.0
20260902084536 58 152 3.0 9.0 0.00 0.00 0.00 71 1013.9
20260902081536 58 151 3.0 7.0 0.00 0.00 0.00 71 1014.1
20260902074606 57 201 4.0 11.0 0.00 0.00 0.00 73 1014.2
20260902073043 58 154 1.0 4.0 0.00 0.00 0.00 71 1014.3
20260902073036 59 175 1.0 6.0 0.00 0.00 0.00 69 1014.4
20260902070034 60 185 3.0 7.0 0.00 0.00 0.00 69 1014.7
20260902064537 60 164 3.0 7.0 0.00 0.00 0.00 69 1014.9
20260902063035 60 152 3.0 6.0 0.00 0.00 0.00 68 1014.9
20260902061537 61 164 3.0 8.0 0.00 0.00 0.00 68 1015.0
20260902060031 61 151 3.0 7.0 0.00 0.00 0.00 65 1015.0
20260902054535 62 191 3.0 13.0 0.00 0.00 0.00 65 1014.9
20260902053036 61 208 4.0 9.0 0.00 0.00 0.00 65 1014.8
20260902051535 61 189 2.0 8.0 0.00 0.00 0.00 66 1014.7
20260902050034 61 190 3.0 8.0 0.00 0.00 0.00 65 1014.6
20260902044605 61 155 2.0 4.0 0.00 0.00 0.00 64 1014.5
20260902043030 62 153 3.0 7.0 0.00 0.00 0.00 62 1014.4
20260902040036 62 230 4.0 10.0 0.00 0.00 0.00 62 1014.1
20260902034535 62 260 4.0 13.0 0.00 0.00 0.00 62 1013.8
20260902033030 62 337 4.0 14.0 0.00 0.00 0.00 63 1013.7
20260902031536 62 312 3.0 11.0 0.00 0.00 0.00 63 1013.6
20260902030145 62 40 2.0 6.0 0.00 0.00 0.00 63 1014.0
20260902023105 63 231 3.0 10.0 0.00 0.00 0.00 59 1013.8
20260902020035 64 242 4.0 10.0 0.00 0.00 0.00 59 1013.7
20260902014607 66 210 1.0 7.0 0.00 0.00 0.00 56 1013.5
20260902013037 66 245 5.0 12.0 0.00 0.00 0.00 54 1013.4
20260902011530 67 236 5.0 18.0 0.00 0.00 0.00 53 1013.3
20260902010034 68 203 3.0 15.0 0.00 0.00 0.00 52 1013.4
20260902004533 69 266 3.0 11.0 0.00 0.00 0.00 52 1013.1
20260902003029 68 279 4.0 11.0 0.00 0.00 0.00 52 1012.9
20260902001605 70 282 5.0 13.0 0.00 0.00 0.00 51 1012.8
20260902000034 70 168 4.0 13.0 0.00 0.00 0.00 52 1012.7
20260901234530 69 335 3.0 8.0 0.00 0.00 0.00 52 1012.7
20260901233034 71 313 2.0 9.0 0.00 0.00 0.00 49 1012.7
20260901231641 72 288 3.0 11.0 0.00 0.00 0.00 48 1012.6